Regional Weather Roundup
Issued by NWS Austin/San Antonio, TX

Current Version | Previous Version | Text Only | Print | Product List | Glossary On
Versions: 1 2 3 4 5 6 7 8 9 10 11 12 13 14 15 16 17 18 19 20 21 22 23 24 25 26 27 28 29 30 31 32 33 34 35 36 37 38 39 40 41 42 43 44 45 46 47 48 49 50
000
ASUS44 KEWX 031513
RWREWX
SOUTH TEXAS REGIONAL WEATHER ROUNDUP
NATIONAL WEATHER SERVICE AUSTIN/SAN ANTONIO TX
1000 AM CDT MON OCT 03 2022

NOTE: "FAIR" INDICATED FEW OR NO CLOUDS BELOW 12,000 FEET WITH NO
SIGNIFICANT WEATHER AND/OR OBSTRUCTIONS TO VISIBILITY.

* - THESE STATIONS ARE NOT NWS OR FAA STATIONS...AND ARE NOT SUBJECT
    TO NWS AND FAA QUALITY CONTROL.

TXZ171-172-183>190-031600-
TEXAS HILL COUNTRY AND EDWARDS PLATEAU

CITY           SKY/WX    TMP DP  RH WIND       PRES   REMARKS
JUNCTION       SUNNY     64  46  52 CALM      30.24R
*LLANO         SUNNY     66  43  42 CALM      30.22S
BURNET         SUNNY     72  44  36 SE6       30.23S
*HORSESHOE BAY SUNNY     67  43  41 CALM      30.23R
*LAGO VISTA      N/A     72  45  38 E3        30.22R
*KERRVILLE     PTSUNNY   62  47  58 CALM      30.22R
*FREDERICKSBRG SUNNY     64  46  52 CALM      30.23R
*ROCKSPRINGS   SUNNY     70  54  56 S7        30.28R
*BOERNE        MOSUNNY   68  43  40 CALM      30.21R
HONDO          PTSUNNY   72  47  40 NE3       30.20R
*UVALDE        PTSUNNY   69  51  53 NE5       30.21S
DEL RIO        PTSUNNY   68  56  65 E6        30.18R
*LAUGHLIN AFB  CLOUDY    67  57  71 E5        30.16S
*SPOFFORD      PTSUNNY   72  58  60 NE5       30.17S
CARRIZO SPRGS  PTSUNNY   70  59  68 CALM      30.17R
*FAITH RANCH   SUNNY     73  61  64 E5        30.18R
$$

TXZ173-191>194-202-209-217>225-228-031600-
CENTRAL AND SOUTH CENTRAL TEXAS

CITY           SKY/WX    TMP DP  RH WIND       PRES   REMARKS
GEORGETOWN     SUNNY     71  47  42 CALM      30.23R
*TAYLOR        SUNNY     69  47  45 NE3       30.21S
AUSTIN/BERGSTM MOSUNNY   71  48  43 E5        30.19R
AUSTIN/MABRY   SUNNY     71  47  42 CALM      30.21R
*PFLUGERVILLE  SUNNY     72  45  37 NE5       30.19S
SAN MARCOS     MOSUNNY   73  46  38 NE8       30.20R
NEW BRAUNFELS  MOSUNNY   74  45  35 NE6       30.18R
*RANDOLPH AFB  PTSUNNY   75  41  30 NE6       30.16R
*SEGUIN        CLOUDY    73  44  34 NE5       30.17R
SAN ANTONIO    PTSUNNY   73  44  35 NE5       30.19R
STINSON FIELD  MOSUNNY   75  45  34 NE5       30.16R
*KELLY FIELD   PTSUNNY   74  44  33 NE6       30.16R
*PLEASANTON    MOSUNNY   72  52  49 NE7       30.18S
*KENEDY        MOSUNNY   74  52  46 NE3       30.18R
*LA GRANGE     NOT AVBL
*GIDDINGS      MOSUNNY   71  48  45 E5        30.20R
*GONZALES      MOSUNNY   73  47  40 NE6       30.17R
$$

TXZ163>164-176>182-195>201-210>213-226-227-235-031600-
SOUTHEAST TEXAS

CITY           SKY/WX    TMP DP  RH WIND       PRES   REMARKS
COLLEGE STN    MOSUNNY   74  50  42 NE6       30.19R
*BRYAN         MOSUNNY   72  50  47 NE5       30.21S
*CALDWELL      MOSUNNY   70  50  50 CALM      30.21R
*CROCKETT      MOSUNNY   73  48  40 VRB3      30.19R
*BRENHAM       MOSUNNY   71  51  49 CALM        N/A
HUNTSVILLE     SUNNY     73  52  47 VRB3      30.18S
CONROE         MOSUNNY   72  54  53 VRB5      30.18R
HOUSTON BUSH   PTSUNNY   73  51  46 NE7       30.16R
HOUSTON HOBBY  PTSUNNY   73  51  46 N6        30.16R
*HOUSTON SW AP NOT AVBL
PEARLAND       PTSUNNY   72  53  51 NE6       30.17R
HOUSTON HOOKS  PTSUNNY   74  52  46 VRB3      30.17R
ELLINGTON FLD  PTSUNNY   72  54  53 NE6       30.15R
SUGAR LAND     PTSUNNY   72  54  53 NE5       30.16R
*HOUSTON EXEC  PTSUNNY   72  54  53 E7        30.18S
*CLEVELAND MUN NOT AVBL
*WHARTON       MOSUNNY   74  53  47 E6        30.16S
*COLUMBUS      FAIR      69  51  53 CALM      30.18R
*EAGLE LAKE    MOSUNNY   72  52  49 E5        30.17R
$$

TXZ214>216-236>238-031600-
THE UPPER TEXAS COAST

CITY           SKY/WX    TMP DP  RH WIND       PRES   REMARKS
*ORANGE        MOSUNNY   76  52  42 NE3       30.16S
PORT ARTHUR    MOSUNNY   74  53  48 NE6       30.14R
GALVESTON      PTSUNNY   77  59  53 NE7       30.15R
ANGLETON       PTSUNNY   72  60  66 N5        30.15R
*BAY CITY      MOSUNNY   69  58  69 E6        30.15S
PALACIOS       MOSUNNY   76  55  48 NE7       30.14R
$$

TXZ229>234-239>247-031600-
TEXAS COASTAL BEND AND RIO GRANDE PLAINS

CITY           SKY/WX    TMP DP  RH WIND       PRES   REMARKS
VICTORIA       MOSUNNY   73  56  54 NE6       30.15S
*BEEVILLE      MOSUNNY   75  52  44 NE5       30.15S
ROCKPORT       PTSUNNY   77  61  57 N6        30.13R
*PORT ARANSAS  MOSUNNY  N/A N/A N/A N9        30.15R
*PORT LAVACA   MOSUNNY   75  59  57 NE7       30.15S
*INGLESIDE     PTSUNNY   74  63  67 NE6       30.13S
CORPUS CHRISTI PTSUNNY   78  60  53 N8        30.13R
CORPUS NAS     PTSUNNY   82  63  52 N12       30.13R
*ROBSTOWN      PTSUNNY   73  60  63 MISG      30.14S
ALICE          CLOUDY    73  63  70 N5        30.14R
KINGSVILLE NAS CLOUDY    75  61  61 N5        30.13S
COTULLA        PTSUNNY   73  57  57 NE5       30.17R
LAREDO         PTSUNNY   75  64  68 E5        30.15R
$$

TXZ248>255-031600-
DEEP SOUTH TEXAS

CITY           SKY/WX    TMP DP  RH WIND       PRES   REMARKS
BROWNSVILLE    SUNNY     82  65  56 CALM      30.11R
PORT ISABEL    MOSUNNY   81  66  60 CALM      30.11R
HARLINGEN      MOSUNNY   81  66  60 N5        30.11R
*HEBBRONVILLE  MOSUNNY   72  59  63 CALM      30.17R
MCALLEN        MOSUNNY   81  64  56 CALM      30.13R
*WESLACO       MOSUNNY   78  65  63 CALM      30.13R
FALFURRIAS     CLOUDY    74  61  64 N6        30.13S
EDINBURG       SUNNY     78  66  66 CALM      30.13S
*ZAPATA        SUNNY     75  66  71 CALM      30.16R
$$

TXZ213>215-236>238-242>244-246-247-251-254-255-031600-
CMAN STATIONS

STATION/POSITION TIME  TEMP    WIND        PRES    WAVE
                       AIR SEA DIR/SP/G            HT/PER
                 (UTC) (F)     (DEG/KT/KT) (MB)    (FT/S)
SEA RIM ST PARK  1500   72      30/  8/ 10 1020.8
NORTH JETTY/GLS  1430   71 77   70/ 11/ 12 1019.2
EAGLE POINT      1430   71 74   40/  9/ 11 1020.2
MORGANS POINT    1424      76              1020.4
MISSION/ARANSAS  1400   72      20/  9     1020.0
PORT O`CONNOR    1424   72 81  340/  9/ 11 1020.2
PORT ARANSAS     1500   75      10/ 11/ 12   N/A
BAFFIN BAY       1424   74 79  340/ 10/ 11 1020.2
PORT ISABEL      1424   81 83   60/  5/  7 1018.8
$$



USA.gov is the U.S. government's official web portal to all federal, state and local government web resources and services.